Date_and_time,latitude,longitude,wind_speed,RelWindDirFrom,WindDirFrom,air_pressure,air_temperature,relative_humidity,Temp,platform_speed_wrt_ground,air_pressure_at_mean_sea_level,platform_orientation
2018-04-11 23:40,50.63044,-96.9807566666667,4.4,5.6,102,983.93,-0.8,66,2.68,0.0,1011.74,0.0
2018-04-11 23:50,50.63044,-96.9807566666667,4.3,5.4,102,983.81,-0.7,65,2.68,0.0,1011.59,0.0
2018-04-12 00:00,50.6304266666667,-96.9807616666667,3.9,5.1,96,983.66,-0.8,66,2.69,0.0,1011.47,360.0
2018-04-12 00:10,50.6304366666667,-96.9807583333333,4.4,5.0,106,983.58,-0.9,67,2.70,0.0,1011.39,360.0
2018-04-12 00:20,50.6304133333333,-96.980755,3.9,4.8,99,983.51,-1.0,69,2.70,0.0,1011.31,360.0
2018-04-12 00:30,50.6304333333333,-96.98076,4.0,4.9,94,983.38,-1.0,70,2.70,0.0,1011.17,360.0
2018-04-12 00:40,50.630435,-96.9807583333333,4.2,5.5,92,983.18,-1.2,72,2.72,0.0,1010.98,360.0
2018-04-12 00:50,50.6304366666667,-96.9807566666667,4.5,5.6,86,983.03,-1.3,74,2.73,0.0,1010.86,360.0
2018-04-12 01:00,50.630435,-96.980755,4.5,5.3,81,982.92,-1.5,77,2.73,0.0,1010.77,192.6
2018-04-12 01:10,50.6304366666667,-96.980755,4.2,5.4,74,982.83,-1.5,77,2.73,0.0,1010.67,192.6
2018-04-12 01:20,50.6304383333333,-96.9807566666667,3.1,4.2,97,982.81,-1.3,78,2.73,0.0,1010.63,192.6
2018-04-12 01:30,50.630465,-96.9808,3.4,4.3,110,982.74,-1.2,77,2.74,0.0,1010.56,192.6
2018-04-12 01:40,50.630455,-96.98076,3.5,4.5,91,982.72,-1.3,80,2.74,0.0,1010.54,192.6
2018-04-12 01:50,50.6304483333333,-96.9807583333333,4.1,5.4,76,982.69,-1.3,79,2.74,0.0,1010.52,192.6
2018-04-12 02:00,50.6304466666667,-96.9807566666667,4.3,5.4,81,982.73,-1.2,76,2.74,0.0,1010.56,38.0
2018-04-12 02:10,50.6304466666667,-96.9807566666667,3.7,4.8,90,982.80,-1.0,76,2.76,0.0,1010.63,38.0
2018-04-12 02:20,50.630445,-96.9807583333333,3.2,4.0,93,982.77,-1.0,76,2.76,0.0,1010.60,38.0
2018-04-12 02:30,50.6304433333333,-96.9807566666667,2.9,3.7,92,982.78,-0.9,75,2.76,0.0,1010.61,38.0
2018-04-12 02:40,50.6304433333333,-96.9807533333333,2.8,3.7,90,982.76,-0.9,76,2.75,0.0,1010.59,38.0
2018-04-12 02:50,50.6304316666667,-96.980755,2.6,3.4,94,982.81,-0.8,74,2.76,0.0,1010.65,38.0
2018-04-12 03:00,50.6304416666667,-96.9807633333333,2.8,3.6,101,982.86,-0.7,74,2.76,0.0,1010.70,336.5
2018-04-12 03:10,50.6304466666667,-96.98076,2.1,2.8,98,982.88,-0.6,77,2.76,0.0,1010.70,336.5
2018-04-12 03:20,50.6304466666667,-96.9807566666667,2.4,3.2,95,982.85,-0.6,78,2.76,0.0,1010.66,336.5
2018-04-12 03:30,50.6304433333333,-96.98076,2.7,3.5,99,982.79,-0.6,79,2.76,0.0,1010.61,336.5
2018-04-12 03:40,50.6304433333333,-96.98076,1.9,2.9,103,982.85,-0.6,80,2.74,0.0,1010.67,336.5
2018-04-12 03:50,50.6304416666667,-96.9807583333333,2.1,3.0,98,982.74,-0.6,81,2.73,0.0,1010.55,336.5
2018-04-12 04:00,50.6304416666667,-96.98076,1.8,2.7,93,982.72,-0.7,81,2.73,0.0,1010.52,38.0
2018-04-12 04:10,50.6304516666667,-96.9807683333333,1.1,1.8,91,982.78,-0.7,80,2.73,0.0,1010.58,38.0
2018-04-12 04:20,50.630445,-96.9807566666667,0.0,0.8,0,982.73,-1.0,79,2.72,0.0,1010.55,38.0
2018-04-12 04:30,50.6304466666667,-96.98076,0.0,0.0,0,982.72,-0.7,78,2.72,0.0,1010.52,38.0
2018-04-12 04:40,50.6304416666667,-96.9807516666667,0.9,1.8,46,982.69,-0.8,78,2.72,0.0,1010.49,38.0
2018-04-12 04:50,50.6304433333333,-96.9807616666667,0.3,1.4,14,982.62,-1.1,82,2.71,0.0,1010.42,38.0
2018-04-12 05:00,50.63044,-96.9807616666667,0.8,1.4,17,982.63,-1.0,84,2.71,0.0,1010.43,142.0
2018-04-12 05:10,50.63044,-96.9807616666667,0.4,1.0,11,982.60,-1.1,81,2.72,0.0,1010.40,142.0
2018-04-12 05:20,50.6304416666667,-96.9807616666667,0.7,2.1,343,982.66,-1.1,79,2.72,0.0,1010.47,142.0
2018-04-12 05:30,50.6304266666667,-96.980775,1.5,2.1,307,982.64,-1.2,75,2.71,0.0,1010.46,142.0
2018-04-12 05:40,50.6304333333333,-96.9807683333333,1.5,2.4,272,982.62,-1.4,76,2.70,0.0,1010.44,142.0
2018-04-12 05:50,50.63044,-96.980765,1.2,2.1,219,982.63,-1.7,82,2.70,0.0,1010.47,142.0
2018-04-12 06:00,50.63044,-96.9807616666667,2.2,2.7,237,982.67,-1.9,84,2.70,0.0,1010.52,90.0
2018-04-12 06:10,50.63044,-96.98076,2.6,3.2,240,982.69,-2.0,85,2.70,0.0,1010.57,90.0
2018-04-12 06:20,50.63044,-96.9807616666667,2.9,3.6,248,982.71,-2.1,83,2.70,0.0,1010.57,90.0
2018-04-12 06:30,50.6304416666667,-96.98076,3.0,3.5,249,982.69,-2.0,80,2.69,0.0,1010.55,90.0
2018-04-12 06:40,50.6304416666667,-96.9807616666667,3.0,4.2,262,982.70,-2.0,80,2.70,0.0,1010.58,90.0
2018-04-12 06:50,50.6304483333333,-96.9807566666667,3.4,4.2,278,982.71,-1.9,80,2.70,0.0,1010.58,90.0
2018-04-12 07:00,50.6304466666667,-96.9807566666667,2.7,3.8,309,982.73,-1.8,82,2.69,0.0,1010.59,360.0
2018-04-12 07:10,50.6304483333333,-96.9807516666667,2.4,3.7,307,982.74,-1.9,81,2.67,0.0,1010.62,360.0
2018-04-12 07:20,50.6304483333333,-96.9807533333333,3.3,5.0,297,982.74,-1.9,78,2.66,0.0,1010.62,360.0
2018-04-12 07:30,50.6304483333333,-96.9807566666667,5.3,10.7,346,982.81,-1.7,77,2.66,0.0,1010.70,360.0
2018-04-12 07:40,50.6304466666667,-96.980755,10.3,12.7,8,982.77,-2.2,89,2.66,0.0,1010.69,360.0
2018-04-12 07:50,50.630445,-96.980755,11.6,14.2,8,982.72,-2.8,92,2.67,0.0,1010.68,360.0
2018-04-12 08:00,50.6304366666667,-96.9807733333333,12.9,14.7,7,982.76,-3.3,89,2.67,0.0,1010.75,234.7
2018-04-12 08:10,50.6304333333333,-96.9807583333333,12.0,13.9,6,982.86,-3.7,84,2.65,0.0,1010.89,234.7
2018-04-12 08:20,50.6304383333333,-96.9807516666667,12.2,15.3,10,982.86,-3.9,80,2.64,0.0,1010.89,234.7
2018-04-12 08:30,50.6304466666667,-96.980775,13.6,17.4,14,982.82,-4.0,70,2.64,0.0,1010.85,234.7
2018-04-12 08:40,50.6304433333333,-96.9807533333333,14.7,17.5,18,982.84,-4.1,63,2.64,0.0,1010.87,234.7
2018-04-12 08:50,50.63044,-96.9807533333333,13.4,16.0,19,983.03,-4.3,65,2.64,0.0,1011.07,234.7
2018-04-12 09:00,50.63044,-96.9807516666667,14.1,16.5,19,983.06,-4.4,65,2.65,0.0,1011.12,90.0
2018-04-12 09:10,50.6304383333333,-96.9807516666667,14.2,16.2,20,983.05,-4.5,62,2.64,0.0,1011.11,90.0
2018-04-12 09:20,50.6304383333333,-96.980755,12.2,14.9,22,983.17,-4.5,63,2.65,0.0,1011.22,90.0
2018-04-12 09:30,50.6304383333333,-96.980755,12.1,14.0,22,983.22,-4.6,64,2.64,0.0,1011.31,90.0
2018-04-12 09:40,50.6304366666667,-96.980755,12.0,14.0,27,983.12,-4.7,64,2.62,0.0,1011.24,90.0
2018-04-12 09:50,50.6304383333333,-96.980755,10.6,12.4,24,983.17,-4.8,65,2.62,0.0,1011.32,90.0
2018-04-12 10:00,50.6304383333333,-96.980755,10.5,12.5,21,983.20,-4.9,65,2.62,0.0,1011.39,142.0
2018-04-12 10:10,50.6304383333333,-96.980755,10.2,11.8,19,983.32,-5.0,65,2.62,0.0,1011.52,142.0
2018-04-12 10:20,50.6304383333333,-96.9807566666667,10.5,12.0,18,983.37,-5.0,64,2.63,0.0,1011.58,142.0
2018-04-12 10:30,50.63043,-96.9807583333333,10.0,11.8,14,983.48,-5.1,65,2.63,0.0,1011.69,142.0
2018-04-12 10:40,50.6304333333333,-96.980755,9.5,11.2,14,983.50,-5.2,64,2.62,0.0,1011.74,142.0
2018-04-12 10:50,50.6304316666667,-96.9807533333333,10.7,12.9,12,983.51,-5.2,62,2.62,0.0,1011.75,142.0
2018-04-12 11:00,50.6304333333333,-96.9807566666667,10.5,13.2,11,983.52,-5.2,60,2.62,0.0,1011.77,119.2
2018-04-12 11:10,50.6304333333333,-96.980755,10.5,12.8,12,983.55,-5.3,60,2.62,0.0,1011.81,119.2
2018-04-12 11:20,50.6304333333333,-96.9807533333333,10.2,13.3,5,983.65,-5.5,62,2.62,0.0,1011.92,119.2
2018-04-12 11:30,50.6304216666667,-96.9807566666667,10.9,13.2,8,983.68,-5.7,61,2.62,0.0,1011.98,119.2
2018-04-12 11:40,50.6304266666667,-96.9807566666667,11.2,14.4,9,983.79,-6.0,62,2.61,0.0,1012.10,119.2
2018-04-12 11:50,50.63043,-96.980755,11.3,13.7,7,983.77,-6.2,59,2.59,0.0,1012.10,119.2
2018-04-12 12:00,50.6303916666667,-96.9807683333333,11.2,13.7,7,983.76,-6.4,59,2.58,0.0,1012.11,360.0
2018-04-12 12:10,50.6304366666667,-96.980755,11.1,14.5,8,983.81,-6.4,59,2.59,0.0,1012.16,360.0
2018-04-12 12:20,50.6304566666667,-96.9807383333333,12.1,15.3,14,983.91,-6.4,61,2.58,0.0,1012.27,360.0
2018-04-12 12:30,50.6304266666667,-96.9807366666667,12.4,14.9,14,984.04,-6.5,61,2.58,0.0,1012.41,360.0
2018-04-12 12:40,50.6304283333333,-96.9807416666667,11.5,13.7,14,984.28,-6.6,62,2.56,0.0,1012.66,360.0
2018-04-12 12:50,50.63043,-96.9807433333333,11.5,13.6,17,984.45,-6.7,63,2.55,0.0,1012.84,360.0
2018-04-12 13:00,50.6304333333333,-96.980745,10.4,12.0,21,984.71,-6.8,64,2.54,0.0,1013.12,143.4
2018-04-12 13:10,50.630435,-96.980745,9.9,11.8,19,984.86,-6.9,64,2.54,0.0,1013.29,143.4
2018-04-12 13:20,50.630435,-96.9807466666667,10.6,13.0,19,984.99,-6.8,65,2.53,0.0,1013.43,143.4
2018-04-12 13:30,50.630435,-96.9807483333333,11.6,13.3,14,985.13,-6.9,66,2.53,0.0,1013.59,143.4
2018-04-12 13:40,50.630435,-96.9807483333333,11.1,13.6,14,985.29,-6.9,65,2.55,0.0,1013.78,143.4
2018-04-12 13:50,50.630435,-96.98075,10.5,12.3,14,985.35,-6.8,64,2.55,0.0,1013.84,143.4
2018-04-12 14:00,50.630435,-96.98075,10.7,12.1,13,985.33,-6.9,64,2.54,0.0,1013.82,48.3
2018-04-12 14:10,50.630435,-96.98075,10.8,12.6,18,985.36,-6.8,64,2.52,0.0,1013.85,48.3
2018-04-12 14:20,50.630435,-96.9807483333333,10.8,12.7,21,985.47,-6.6,61,2.51,0.0,1013.96,48.3
2018-04-12 14:30,50.6304333333333,-96.9807483333333,10.4,11.9,22,985.51,-6.5,62,2.50,0.0,1014.00,48.3
2018-04-12 14:40,50.630435,-96.9807483333333,9.9,12.0,23,985.67,-6.5,61,2.50,0.0,1014.17,48.3
2018-04-12 14:50,50.630435,-96.98075,9.0,10.4,20,985.82,-6.4,59,2.50,0.0,1014.32,48.3
2018-04-12 15:00,50.6304416666667,-96.980765,8.6,10.0,19,985.87,-6.2,60,2.51,0.0,1014.37,9.8
2018-04-12 15:10,50.6304433333333,-96.9807583333333,8.2,9.7,21,986.01,-6.0,59,2.51,0.0,1014.50,9.8
2018-04-12 15:20,50.6304433333333,-96.9807583333333,6.9,8.5,14,986.39,-5.9,59,2.50,0.0,1014.89,9.8
2018-04-12 15:30,50.63044,-96.9807583333333,6.0,7.6,16,986.79,-5.7,56,2.48,0.0,1015.29,9.8
2018-04-12 15:40,50.63044,-96.9807583333333,5.7,6.7,18,987.14,-5.7,57,2.47,0.0,1015.65,9.8
2018-04-12 15:50,50.6304416666667,-96.9807583333333,5.1,6.5,14,987.31,-5.4,57,2.47,0.0,1015.81,9.8
2018-04-12 16:00,50.6304416666667,-96.98076,4.0,5.1,15,987.49,-5.1,54,2.47,0.0,1015.97,311.7
2018-04-12 16:10,50.6304416666667,-96.9807616666667,4.1,5.0,14,987.62,-4.7,50,2.47,0.0,1016.07,311.7
2018-04-12 16:20,50.6304416666667,-96.9807483333333,4.4,5.4,21,987.64,-4.3,49,2.47,0.0,1016.07,311.7
2018-04-12 16:30,50.6304466666667,-96.9807483333333,5.2,6.1,35,987.51,-3.9,47,2.48,0.0,1015.91,311.7
2018-04-12 16:40,50.6304466666667,-96.98075,6.2,7.3,31,987.48,-3.9,45,2.48,0.0,1015.87,311.7
2018-04-12 16:50,50.6304483333333,-96.9807516666667,6.1,7.0,28,987.68,-3.7,45,2.48,0.0,1016.06,311.7
2018-04-12 17:00,50.6304466666667,-96.9807533333333,6.6,8.1,35,987.71,-3.7,45,2.48,0.0,1016.08,360.0
2018-04-12 17:10,50.6304383333333,-96.9807666666667,8.8,10.7,41,987.54,-3.6,48,2.48,0.0,1015.90,360.0
2018-04-12 17:20,50.6304433333333,-96.9807533333333,10.6,12.1,45,987.41,-3.5,49,2.48,0.0,1015.74,360.0
2018-04-12 17:30,50.6304483333333,-96.980755,11.1,13.3,47,987.27,-3.3,49,2.50,0.0,1015.58,360.0
2018-04-12 17:40,50.6304433333333,-96.9807533333333,12.6,14.4,45,987.18,-3.1,47,2.50,0.0,1015.47,360.0
2018-04-12 17:50,50.6304433333333,-96.9807516666667,12.2,14.3,46,987.15,-3.0,47,2.51,0.0,1015.42,360.0
2018-04-12 18:00,50.6304416666667,-96.98075,11.6,13.3,48,987.15,-2.9,51,2.51,0.0,1015.39,90.0
2018-04-12 18:10,50.6304416666667,-96.9807516666667,12.0,13.6,49,987.16,-2.7,51,2.51,0.0,1015.37,90.0
2018-04-12 18:20,50.6304416666667,-96.9807516666667,12.9,14.9,41,986.99,-2.7,52,2.52,0.0,1015.17,90.0
2018-04-12 18:30,50.6304416666667,-96.9807533333333,12.3,14.2,45,986.94,-2.5,51,2.53,0.0,1015.12,90.0
2018-04-12 18:40,50.6304416666667,-96.980755,12.3,14.0,50,986.89,-2.5,51,2.55,0.0,1015.04,90.0
2018-04-12 18:50,50.6304416666667,-96.980755,13.0,14.8,47,986.90,-2.5,49,2.56,0.0,1015.06,90.0
2018-04-12 19:00,50.6304433333333,-96.9807566666667,12.0,14.0,50,986.88,-2.4,50,2.57,0.0,1015.03,0.0
2018-04-12 19:10,50.6304416666667,-96.9807566666667,12.4,14.7,51,986.91,-2.3,48,2.58,0.0,1015.06,0.0
2018-04-12 19:20,50.6304466666667,-96.98076,13.1,14.8,45,986.88,-2.3,49,2.58,0.0,1015.01,0.0
2018-04-12 19:30,50.6304466666667,-96.9807566666667,11.1,13.7,45,987.09,-2.2,51,2.59,0.0,1015.21,0.0
2018-04-12 19:40,50.630445,-96.9807566666667,13.2,14.8,39,986.97,-2.0,47,2.60,0.0,1015.06,0.0
2018-04-12 19:50,50.630445,-96.9807616666667,12.6,15.3,45,986.91,-2.0,49,2.62,0.0,1015.00,0.0
2018-04-12 20:00,50.63044,-96.9807516666667,13.2,16.0,47,986.83,-2.0,51,2.63,0.0,1014.91,142.0
2018-04-12 20:10,50.6304366666667,-96.9807483333333,13.3,15.6,48,986.85,-2.0,52,2.63,0.0,1014.93,142.0
2018-04-12 20:20,50.6304366666667,-96.9807483333333,13.2,15.6,43,986.89,-2.1,50,2.65,0.0,1014.97,142.0
2018-04-12 20:30,50.6304383333333,-96.9807466666667,13.2,15.3,41,986.83,-2.1,51,2.66,0.0,1014.90,142.0
2018-04-12 20:40,50.6304366666667,-96.980745,13.0,16.7,44,986.73,-2.1,51,2.67,0.0,1014.80,142.0
2018-04-12 20:50,50.6304366666667,-96.9807483333333,14.1,16.3,39,986.69,-2.1,52,2.67,0.0,1014.76,142.0
2018-04-12 21:00,50.6304333333333,-96.9807983333333,15.3,17.9,46,986.68,-2.3,55,2.69,0.0,1014.75,251.1
2018-04-12 21:10,50.6304433333333,-96.98077,14.1,16.7,51,986.87,-2.3,56,2.70,0.0,1014.95,251.1
2018-04-12 21:20,50.63044,-96.980765,13.7,16.0,48,986.93,-2.4,55,2.71,0.0,1015.00,251.1
2018-04-12 21:30,50.6304383333333,-96.9807583333333,13.3,15.1,55,986.97,-2.4,58,2.72,0.0,1015.03,251.1
2018-04-12 21:40,50.630435,-96.980745,13.5,15.7,45,986.93,-2.3,59,2.73,0.0,1014.99,251.1
2018-04-12 21:50,50.630435,-96.98075,14.3,16.6,50,986.85,-2.4,59,2.74,0.0,1014.91,251.1
2018-04-12 22:00,50.6304333333333,-96.9807483333333,14.9,18.2,50,986.77,-2.5,62,2.74,0.0,1014.83,138.7
2018-04-12 22:10,50.6304316666667,-96.9807483333333,15.4,18.1,50,986.95,-2.5,61,2.75,0.0,1015.03,138.7
2018-04-12 22:20,50.6304316666667,-96.98075,15.3,17.9,48,987.03,-2.6,63,2.76,0.0,1015.12,138.7
2018-04-12 22:30,50.6304333333333,-96.9807533333333,14.7,18.3,47,987.16,-2.7,62,2.77,0.0,1015.26,138.7
2018-04-12 22:40,50.6304333333333,-96.9807533333333,16.4,19.5,35,987.09,-2.7,58,2.78,0.0,1015.18,138.7
2018-04-12 22:50,50.6304333333333,-96.9807533333333,19.0,21.8,37,986.80,-2.8,54,2.78,0.0,1014.90,138.7
2018-04-12 23:00,50.630435,-96.9807533333333,18.9,21.4,35,986.91,-3.0,53,2.79,0.0,1015.02,360.0
2018-04-12 23:10,50.6304366666667,-96.9807533333333,17.7,20.8,33,987.22,-3.0,56,2.80,0.0,1015.35,360.0
2018-04-12 23:20,50.6304416666667,-96.980765,18.5,20.9,33,987.30,-3.1,54,2.81,0.0,1015.43,360.0
2018-04-12 23:30,50.63044,-96.9807616666667,17.8,21.4,33,987.60,-3.2,55,2.82,0.0,1015.74,360.0
2018-04-12 23:40,50.63044,-96.98076,16.1,18.7,33,988.03,-3.3,57,2.82,0.0,1016.19,360.0
